Regional Weather Roundup
Issued by NWS Albany, NY

Home | Current Version | Previous Version | Text Only | Print | Product List | Glossary On
Versions: 1 2 3 4 5 6 7 8 9 10 11 12 13 14 15 16 17 18 19 20 21 22 23 24 25 26 27 28 29 30 31 32 33 34 35 36 37 38 39 40 41 42 43 44 45 46 47 48 49 50
000
ASUS41 KALY 240910
RWRALY

NEW YORK STATE HOURLY WEATHER ROUNDUP
NATIONAL WEATHER SERVICE ALBANY NY
400 AM EST MON NOV 24 2014

NOTE: "FAIR" INDICATES FEW OR NO CLOUDS BELOW 12,000 FEET WITH NO
SIGNIFICANT WEATHER AND/OR NO OBSTRUCTIONS TO VISIBILITY.

NYZ032-033-038>043-046>054-057>066-NYZ062>081-241000-
EAST


CITY           SKY/WX    TMP DP  RH WIND       PRES   REMARKS
ALBANY         LGT RAIN  48  43  82 SE5       29.78F
GLENS FALLS    RAIN      38  36  92 CALM      29.81F FOG
POUGHKEEPSIE   LGT RAIN  54  51  90 VRB5      29.76F FOG
MONTGOMERY     RAIN      43  41  93 N8        29.73F FOG
WHITE PLAINS   RAIN      55  54  96 SE14      29.78F FOG
ISLIP          LGT RAIN  58  55  90 SE17      29.83F FOG
NEW YORK CITY  RAIN      59  57  93 SE21G29   29.78F FOG
CENTRAL PARK   RAIN      59  57  93 MISG      29.80F FOG
$$

NYZ005>009-017-018-044>046-055-056-241000-
CENTRAL


CITY           SKY/WX    TMP DP  RH WIND       PRES   REMARKS
FULTON         RAIN      50  46  86 SE8G24    29.48F FOG
SYRACUSE       LGT RAIN  51  48  89 E18G24    29.50F
ROME           LGT RAIN  44  41  89 E14       29.62F
ELMIRA         LGT RAIN  52  50  93 SE13      29.51F FOG
BINGHAMTON     RAIN      48  47  96 SE20G29   29.55F FOG
MONTICELLO     CLOUDY    45  45 100 E8        29.73F
$$

NYZ026>034-041>043-241000-
NORTH


CITY           SKY/WX    TMP DP  RH WIND       PRES   REMARKS
WATERTOWN      LGT RAIN  54  46  74 SE16G30   29.48F
FORT DRUM      NOT AVBL
MASSENA        LGT RAIN  50  42  74 E7        29.64F
SARANAC LAKE   LGT RAIN  49  40  71 S20G36    29.68F
PLATTSBURGH    CLOUDY    50  34  54 S12       29.75F
$$

NYZ001>004-010>016-019>021-241000-
WEST


CITY           SKY/WX    TMP DP  RH WIND       PRES   REMARKS
NIAGARA FALLS  CLOUDY    54  48  80 S18G32    29.28
BUFFALO        LGT RAIN  54  47  77 S25G35    29.31F
DUNKIRK        LGT RAIN  56  48  74 S28G41    29.29F
JAMESTOWN      CLOUDY    52  46  82 S17G25    29.35F
WELLSVILLE     CLOUDY    51  47  86 S26G41    29.44F
ROCHESTER      CLOUDY    56  50  80 S12G24    29.41F
PENN YAN       LGT RAIN  52  48  86 S14G32    29.46F
$$

             KEY
       WCI = WIND CHILL INDEX
       VSB = VISIBILITY
       HX  = HEAT INDEX
$$


USA.gov is the U.S. government's official web portal to all federal, state and local government web resources and services.